Theta_e
297 297 297 297 298 298 298 298 299 299 299 300 301 302 303 305 306 304 302 302 303 305 304 301 304 305 305 305 305 305 306 306 305 305 307 310 310 310 311 310 310 310 310 311 310 309 311 311 311 312 312 315 316 313 312 313 311 312 312 312 317 320 318 315 316 317 317 318 318 317 317 316 315 315 315 314 313 314 312 312 314 313 313 315 310 316 327
297 297 297 297 298 298 298 299 299 300 300 300 301 302 304 305 305 304 302 302 304 306 305 302 304 305 306 306 305 305 305 305 304 305 307 309 310 310 310 309 309 309 309 310 311 312 314 314 314 313 315 318 319 316 314 313 311 311 313 313 315 318 319 318 318 318 319 318 317 316 317 316 316 318 320 319 317 317 316 315 315 313 313 314 309 317 327
297 297 297 298 298 298 298 299 299 300 300 300 301 301 302 305 305 303 303 303 304 307 307 306 305 306 307 307 306 305 304 304 305 306 307 308 309 310 310 309 309 309 309 310 311 311 314 316 316 315 317 320 319 318 316 314 310 314 318 317 315 318 321 321 318 317 318 319 318 318 317 317 319 321 320 321 320 318 317 314 312 313 316 314 311 321 324
297 297 298 298 298 299 299 299 300 300 301 301 301 301 303 305 304 302 303 305 306 307 309 309 307 306 307 306 305 305 304 306 306 306 308 308 308 310 310 309 309 310 311 312 313 312 313 315 316 316 318 320 320 318 317 315 316 321 324 320 318 321 323 324 323 319 318 320 321 322 320 318 320 322 320 321 323 323 320 313 310 315 317 316 318 325 323
297 297 298 298 298 299 299 300 300 301 301 301 301 302 305 306 304 303 304 305 306 308 309 310 309 307 306 306 307 306 305 307 308 308 309 309 308 309 309 309 310 312 313 314 314 313 313 315 316 316 318 320 320 319 317 318 321 322 321 319 319 322 322 322 324 323 321 322 322 322 323 322 322 323 323 322 322 325 324 319 318 317 313 317 326 326 322
297 298 298 298 298 299 299 300 300 301 301 301 302 304 306 306 305 305 306 306 306 307 308 310 310 308 308 308 309 309 308 309 310 310 310 309 309 310 311 311 310 312 314 316 315 314 314 317 318 318 320 321 320 320 319 320 320 319 318 320 321 322 321 321 322 322 320 321 320 320 322 322 322 323 324 324 323 325 327 325 327 324 317 321 327 325 322
297 298 297 298 298 299 299 300 301 301 302 301 303 305 307 307 305 307 309 309 309 309 309 310 310 308 308 308 308 310 311 311 312 311 310 310 309 310 313 315 312 312 315 315 315 315 315 317 320 321 321 321 321 321 320 319 318 316 319 322 322 321 320 320 321 321 320 320 320 320 320 320 321 321 322 324 324 325 326 326 326 326 325 325 325 322 320
297 297 298 298 298 299 299 301 301 301 302 303 304 306 307 307 307 308 310 310 310 311 311 310 310 309 308 309 309 310 311 312 311 309 310 310 310 310 313 316 314 314 315 314 316 318 318 319 322 323 323 323 321 321 320 318 318 319 320 321 322 321 320 320 320 320 320 320 320 320 320 320 320 320 320 322 323 323 324 324 324 324 325 323 320 318 315
297 298 298 298 298 299 299 300 301 301 302 304 305 306 305 306 307 308 310 311 310 312 311 310 309 309 308 309 311 311 312 312 310 308 308 310 312 313 314 316 315 315 315 314 315 317 318 320 320 320 320 320 318 319 320 319 319 321 322 322 322 321 319 320 321 321 320 320 320 321 321 320 319 318 318 320 320 320 320 321 321 322 321 319 318 317 313
298 298 298 298 298 299 299 300 301 301 302 304 305 305 304 305 307 307 309 311 310 311 311 309 308 308 308 310 311 312 312 311 310 309 308 309 311 312 312 315 316 316 316 314 314 315 316 316 315 316 316 316 315 316 317 318 319 321 322 322 322 320 320 320 321 322 320 319 320 322 321 320 321 317 315 317 318 318 318 318 319 319 319 319 318 316 310
298 298 298 298 299 299 299 300 300 301 302 303 303 303 303 304 305 307 309 310 310 311 311 309 308 309 310 310 310 310 311 310 310 310 308 308 309 310 312 315 316 315 314 312 311 313 315 314 314 315 315 314 315 316 316 316 317 319 320 321 322 321 321 321 321 322 320 319 320 321 322 322 320 314 312 315 317 317 317 317 317 317 316 316 315 311 307
298 298 298 298 298 299 299 299 300 301 302 302 302 302 302 302 303 307 309 310 310 311 311 310 309 310 310 309 308 308 308 308 309 310 309 309 308 309 312 316 315 312 311 310 310 312 314 315 315 315 315 315 315 315 316 316 316 317 318 320 322 322 320 320 320 320 320 319 320 323 323 321 315 312 313 315 315 314 314 314 314 314 313 312 310 307 306
298 298 298 298 298 299 299 299 299 300 301 302 302 302 302 302 303 306 308 310 310 310 310 309 308 308 308 308 307 307 307 308 309 309 310 310 309 309 310 313 313 311 310 311 312 313 316 317 317 317 316 316 316 315 315 316 316 317 318 319 321 321 319 319 320 320 320 320 321 323 321 315 312 313 313 313 314 314 314 313 312 312 311 309 308 306 305
297 298 298 298 298 298 298 299 300 300 300 301 302 302 303 302 302 304 307 309 307 307 307 308 307 308 308 307 308 308 308 309 308 309 310 309 309 308 308 308 309 308 309 311 313 315 317 317 317 317 316 317 318 317 316 315 315 316 318 318 319 320 319 319 319 319 320 320 319 318 316 315 314 313 313 313 314 315 316 315 311 310 309 308 306 305 304
297 298 298 298 297 296 297 298 299 299 300 300 302 303 302 301 301 303 305 307 307 305 306 307 307 308 308 308 309 309 309 309 308 308 309 309 308 308 307 307 307 307 307 309 313 315 316 316 316 315 316 316 317 317 316 316 315 315 317 318 319 319 319 318 318 318 318 319 318 317 319 319 317 313 313 313 314 314 314 315 312 308 307 306 305 304 303
297 297 297 296 296 296 296 296 297 299 299 300 302 302 302 302 301 302 304 306 307 307 306 306 306 308 308 308 309 309 309 309 309 309 309 309 308 308 308 308 309 309 309 310 312 313 313 314 314 314 314 314 316 318 317 317 316 316 316 317 318 318 318 318 318 317 317 319 319 319 320 318 316 314 313 313 313 313 313 316 315 308 305 306 305 304 303
297 296 295 295 296 296 296 296 297 299 300 301 302 303 303 303 302 303 304 306 308 308 305 304 306 309 309 309 309 309 308 308 309 309 309 308 308 308 308 309 310 311 311 312 313 312 312 313 313 313 313 312 314 316 316 317 318 317 317 317 317 317 317 317 318 318 317 318 318 317 316 314 314 314 313 312 312 313 315 319 317 308 304 305 305 304 303
297 295 294 295 295 296 295 296 298 300 301 302 303 303 304 303 302 303 305 307 309 308 306 305 307 309 309 309 309 309 309 309 309 308 308 308 308 308 308 309 310 310 311 312 313 312 312 312 313 313 313 312 313 315 316 317 317 316 315 316 316 315 315 316 318 317 317 318 318 315 313 312 313 313 312 311 312 314 317 319 314 307 305 305 304 303 303
296 294 294 295 295 295 295 296 298 301 302 302 304 305 305 304 303 303 305 308 309 308 306 305 307 309 308 309 310 310 309 309 308 307 307 308 308 308 308 308 309 310 312 312 312 312 312 312 313 313 313 313 314 315 315 315 314 314 314 315 315 315 314 315 316 316 316 316 316 315 313 311 312 312 311 312 314 315 315 313 309 307 306 305 304 303 303
295 294 294 294 295 295 295 296 298 301 302 303 304 305 305 304 303 303 304 308 309 308 306 304 305 307 307 308 310 310 309 309 309 308 307 308 308 309 308 308 309 310 311 311 311 311 312 313 313 314 313 313 314 314 312 311 310 311 313 315 315 314 315 315 315 314 315 315 315 315 315 312 311 312 312 312 313 313 310 309 308 307 306 305 304 304 304
295 294 294 294 295 295 296 297 299 301 303 304 304 305 306 304 303 303 303 305 309 308 306 304 304 305 306 306 307 308 309 310 310 309 309 309 310 310 309 308 309 310 311 311 311 311 313 313 313 314 314 313 313 313 314 312 310 309 310 313 313 313 314 315 313 311 314 315 315 313 313 311 311 312 312 311 311 310 309 309 308 307 306 305 305 304 304
294 294 294 294 295 296 297 298 299 301 303 304 304 305 307 305 303 303 303 303 307 308 306 304 303 303 304 304 304 305 306 307 308 310 311 310 310 311 310 310 311 311 311 312 311 310 312 313 313 313 313 312 313 313 313 314 313 310 309 311 312 312 312 313 312 309 311 313 311 308 308 309 310 310 310 310 309 309 309 309 308 307 306 306 305 304 304
294 294 294 294 295 296 297 298 299 300 302 304 305 306 308 306 303 303 303 305 307 308 308 306 305 305 305 305 304 304 305 305 306 309 311 311 310 310 311 311 311 311 311 312 312 312 312 313 312 313 313 312 312 313 313 313 313 311 309 310 310 309 309 311 310 308 308 308 307 306 307 308 308 308 308 308 308 308 308 308 307 307 306 305 305 304 303
294 294 294 294 295 296 297 298 300 301 302 303 305 306 306 305 303 303 305 307 307 308 309 308 307 306 306 305 305 305 305 305 305 306 308 310 311 311 311 311 312 313 313 312 312 312 311 311 311 312 313 312 312 312 313 313 312 311 310 309 308 308 309 310 310 309 310 310 307 306 307 307 306 307 307 307 307 308 308 307 307 307 306 305 304 304 303
294 294 294 294 295 297 298 299 300 302 303 303 304 305 307 306 303 302 305 307 307 308 308 307 306 306 305 305 305 305 304 305 306 307 308 310 312 313 313 310 310 312 313 311 311 311 310 310 311 311 311 310 311 312 313 312 312 311 311 310 309 309 310 310 309 309 310 309 305 305 305 305 305 306 306 305 306 306 306 306 306 306 306 305 305 304 303
294 294 294 295 295 297 299 300 301 303 303 303 302 303 307 306 303 303 306 308 308 308 308 307 307 306 306 305 305 304 304 305 307 308 308 309 311 313 312 310 309 310 311 311 311 311 309 310 312 312 311 310 310 311 312 311 311 311 311 310 309 309 309 309 309 308 307 306 304 304 305 305 305 305 305 304 305 305 305 305 305 305 304 304 304 304 304
294 294 295 295 296 298 299 301 303 304 304 304 303 303 305 305 303 304 306 307 308 308 307 307 307 306 306 306 304 304 306 306 307 308 308 308 310 311 311 311 310 310 310 310 310 309 309 310 311 311 310 310 310 310 310 310 310 310 309 308 308 309 309 308 308 307 308 307 306 306 308 306 304 304 304 303 304 304 304 304 304 304 303 303 302 303 303
294 294 295 295 296 298 300 302 304 303 303 304 303 303 303 303 303 304 303 303 307 309 307 306 307 307 306 306 305 305 306 306 307 307 307 308 309 310 310 311 310 311 310 310 309 309 309 309 308 308 308 309 309 309 310 310 310 310 309 308 308 309 309 309 309 310 310 308 307 308 308 306 304 303 303 303 304 304 304 304 304 303 304 304 303 302 302
295 295 295 295 297 299 301 303 304 303 303 304 304 305 305 303 302 303 303 302 306 309 307 306 306 306 306 305 305 305 306 306 306 307 307 307 307 308 309 309 309 309 308 308 308 308 307 306 306 307 307 308 309 309 309 309 310 309 308 307 307 308 308 308 309 310 309 307 307 307 307 305 303 303 303 304 304 305 304 303 304 304 304 304 304 303 302
295 295 295 295 297 299 301 304 304 302 302 304 305 306 307 305 304 304 303 302 304 308 308 306 305 305 305 305 306 305 305 306 306 306 307 307 307 307 308 308 307 308 307 307 306 306 306 305 305 306 306 306 308 309 309 309 309 307 306 306 306 307 307 307 308 309 308 307 307 306 305 303 303 303 304 304 305 305 304 303 304 304 303 303 302 302 301
295 295 295 295 297 299 302 304 304 302 303 307 308 306 306 306 306 305 303 302 304 308 307 305 305 305 305 305 306 305 304 305 306 306 307 307 306 306 307 307 306 306 306 305 305 305 305 305 305 306 306 304 306 308 309 309 309 307 305 305 306 306 306 306 306 307 306 305 305 304 303 303 303 303 304 304 304 304 304 304 303 303 302 301 301 300 300
296 295 295 295 297 299 302 305 304 302 303 305 306 305 305 305 305 304 302 302 305 308 307 305 305 305 305 305 305 304 304 306 307 306 306 306 306 306 306 306 306 305 305 305 304 304 304 304 305 306 306 304 305 308 309 309 308 306 305 305 305 305 305 305 306 305 304 304 304 304 303 303 303 303 303 303 304 304 304 303 302 301 301 301 300 300 300
296 295 295 295 297 300 303 304 304 303 302 302 303 303 304 303 303 303 302 303 306 307 307 306 305 304 304 305 306 305 305 307 307 305 304 305 306 306 306 306 305 304 304 304 304 303 304 305 304 305 305 304 305 307 307 307 306 305 304 305 305 305 304 305 304 304 304 304 304 304 304 303 303 303 303 303 303 303 302 302 301 301 301 301 301 301 300
296 295 295 295 297 300 303 304 304 303 304 304 305 305 303 302 302 302 302 304 307 306 305 305 305 304 304 305 305 304 305 306 306 304 303 304 306 306 305 305 304 304 304 304 304 303 304 304 304 304 304 304 305 306 305 305 304 304 304 304 304 304 304 304 304 304 304 304 304 304 304 303 303 302 302 302 301 301 300 300 300 300 300 300 300 300 300
297 296 295 295 297 301 303 304 304 304 305 306 305 304 303 303 303 302 302 305 307 306 303 304 304 304 304 304 304 304 304 305 305 304 303 304 305 305 305 304 303 303 303 304 304 303 303 303 303 304 303 303 304 305 305 304 303 303 304 304 304 304 304 304 304 304 304 304 303 303 303 303 302 301 300 300 300 300 300 300 300 300 299 299 299 300 300
298 296 295 295 298 302 304 304 304 305 306 306 304 303 303 303 303 302 302 305 307 306 304 304 303 304 304 304 303 304 304 304 304 304 304 304 303 303 304 304 303 302 303 303 303 303 302 302 303 303 303 304 305 305 304 303 303 304 304 304 304 305 304 304 304 303 303 303 302 301 301 301 300 300 299 299 299 300 300 300 300 300 299 299 300 301 301
300 297 296 297 301 304 305 305 304 304 304 303 302 303 303 303 303 304 304 305 306 306 306 305 304 304 305 304 303 303 304 304 304 304 303 303 302 302 303 303 302 303 303 303 302 302 303 303 303 304 304 304 304 303 303 303 303 303 303 303 304 304 304 303 303 303 302 301 301 300 300 299 299 299 299 298 299 300 300 300 300 300 300 300 300 301 301
301 300 300 302 303 303 303 305 304 302 301 302 302 304 304 304 304 304 304 304 304 305 306 306 304 304 305 304 304 303 303 303 303 303 302 302 302 302 302 302 302 302 302 302 301 302 302 302 302 303 303 303 303 303 303 303 303 303 303 302 302 303 303 303 302 302 301 300 299 299 299 299 299 299 299 299 300 300 300 301 301 301 301 301 301 301 301
302 303 304 304 303 303 303 304 303 301 302 303 303 304 304 303 303 303 302 303 303 304 305 305 305 305 305 305 303 303 304 304 303 303 302 302 302 302 302 302 301 302 302 302 301 302 302 302 302 302 301 302 302 303 302 302 302 302 302 302 302 303 302 302 302 301 300 300 300 300 300 299 299 299 300 300 300 301 301 301 301 301 301 301 301 301 301
303 304 303 303 303 303 302 302 301 302 303 304 303 303 303 302 302 302 302 302 303 303 304 305 304 305 306 306 304 303 303 304 304 303 302 302 302 302 302 302 301 302 302 302 301 302 302 302 302 302 302 301 301 301 302 301 301 301 301 302 302 302 302 301 301 301 301 301 301 300 300 300 300 300 300 301 301 301 302 302 302 302 302 302 302 302 302
302 303 303 303 302 301 300 300 301 302 303 303 302 302 302 302 301 301 302 303 303 302 303 304 305 304 305 306 305 304 303 304 304 304 303 302 302 302 302 301 301 302 302 302 301 302 302 302 302 303 303 301 300 301 301 300 300 301 301 302 302 302 301 301 301 301 301 301 301 301 301 301 301 301 301 301 301 302 302 301 302 301 302 302 302 302 302
299 300 300 300 300 299 299 301 302 302 302 302 302 302 301 301 301 302 302 302 303 303 304 305 305 304 304 304 305 304 303 303 304 303 302 301 301 301 302 301 301 302 302 301 301 302 301 301 303 304 303 301 301 300 301 300 300 300 301 302 302 301 301 302 302 301 301 301 301 301 301 301 301 301 301 301 301 301 301 301 301 301 302 302 302 301 301
298 298 298 299 301 301 301 301 301 301 301 302 302 302 301 301 301 302 302 302 303 303 304 304 304 303 303 304 304 304 303 302 303 303 302 301 300 301 301 301 302 302 302 301 302 302 301 301 302 304 303 302 301 300 301 301 300 300 301 302 302 301 301 301 302 301 301 301 302 302 302 302 302 301 301 301 302 302 301 301 301 301 301 302 301 301 301
300 300 300 301 301 300 301 301 301 301 301 301 302 302 302 302 302 302 302 303 303 304 304 304 304 304 303 303 304 303 302 302 302 302 301 301 301 301 302 301 301 302 302 302 302 302 301 301 302 304 303 302 301 301 301 301 300 300 301 302 302 302 301 301 301 301 301 301 301 302 302 302 302 302 302 302 302 302 301 301 301 301 301 301 301 301 301
302 301 301 300 300 300 300 300 300 300 301 302 302 302 303 303 302 303 303 304 304 304 304 304 305 304 304 303 303 302 302 302 302 302 301 301 301 301 302 301 301 301 302 302 302 302 301 301 302 303 303 302 302 302 302 301 301 301 301 301 302 303 303 302 302 302 302 302 302 302 302 302 302 302 302 302 302 302 301 301 301 301 300 300 301 301 301
301 299 300 301 300 300 299 299 300 300 301 302 302 302 303 304 304 304 304 304 305 305 304 305 305 305 303 303 302 302 302 302 302 301 301 301 302 301 300 301 301 301 302 302 302 302 302 302 303 304 303 303 302 302 302 302 302 302 302 302 302 303 303 303 302 302 302 302 302 302 302 302 302 301 301 302 302 301 301 301 300 300 300 300 300 300 300
300 298 298 299 300 299 298 299 300 301 301 302 302 303 303 304 304 304 303 304 305 305 305 305 305 305 303 303 302 302 302 302 301 300 300 301 301 300 299 300 301 301 302 302 302 302 303 303 303 304 303 303 303 303 302 302 302 302 302 302 302 303 303 303 302 302 302 302 302 302 302 302 301 301 301 301 301 301 301 301 300 300 300 300 300 300 300
301 299 298 299 300 299 299 300 301 301 301 301 301 301 302 302 303 303 303 303 305 306 305 304 304 303 302 302 303 302 302 302 301 300 300 301 301 300 300 300 301 301 301 302 302 302 303 304 304 304 304 303 303 303 303 302 302 302 302 301 302 302 303 303 302 302 302 302 302 302 302 302 302 302 301 301 301 301 301 301 300 300 300 300 300 300 300
300 299 298 298 299 299 300 301 301 301 301 301 300 300 301 302 303 304 303 303 304 305 305 304 304 303 302 302 302 302 302 302 301 300 300 300 300 300 300 300 301 301 301 302 302 303 303 304 304 304 303 303 303 303 303 303 303 302 302 302 302 302 302 302 302 302 302 302 302 302 302 302 302 302 301 301 301 301 301 301 301 300 300 300 299 300 300
300 299 299 299 299 299 299 300 300 301 301 301 300 300 301 302 303 303 303 303 305 305 304 303 303 303 302 301 302 302 302 302 301 301 301 301 301 301 301 301 301 302 302 302 303 303 304 304 305 305 304 303 303 303 303 303 303 303 303 303 303 303 302 302 302 302 302 302 301 302 302 302 302 302 302 301 301 301 301 301 301 300 300 300 299 300 300
300 300 300 301 300 300 300 300 300 301 301 301 301 301 301 302 303 303 303 304 304 304 303 303 303 302 301 301 302 301 301 301 301 301 302 301 301 301 301 301 302 302 303 303 303 303 304 304 305 305 304 304 304 303 303 303 304 304 304 303 303 303 303 303 303 303 303 302 302 302 302 302 302 301 301 301 301 301 301 301 301 300 300 300 300 300 300
300 300 301 301 301 300 300 300 300 300 301 301 301 301 301 302 303 303 303 303 303 303 303 303 303 302 302 302 302 301 301 301 301 301 301 301 301 301 302 302 303 303 303 304 304 303 303 304 305 305 305 304 304 304 304 304 304 304 304 304 304 304 304 304 304 303 303 303 303 303 302 302 302 302 302 302 302 301 301 300 300 300 300 300 300 300 300
Wind_Speed
13 12 11 10 9 8 9 10 10 10 9 6 4 3 2 2 1 4 8 13 10 6 6 7 6 7 6 6 7 7 6 5 3 1 0 1 3 4 5 5 6 5 5 5 9 13 10 12 13 11 13 10 5 12 15 13 16 14 10 10 6 2 5 8 8 7 5 6 5 3 2 3 7 8 8 10 10 9 7 6 7 8 7 6 6 5 4
13 12 11 11 10 10 9 9 10 10 8 7 6 4 1 1 2 5 9 9 3 4 5 7 7 7 7 7 8 7 5 5 3 2 2 2 3 4 5 5 6 5 5 7 8 13 9 6 8 9 11 7 5 10 14 13 15 13 9 9 7 5 6 7 8 9 7 6 7 7 7 7 7 5 3 3 5 8 5 3 6 7 8 8 7 4 5
13 12 11 10 11 11 10 11 11 9 7 6 4 2 1 2 3 5 6 6 5 4 3 3 5 7 7 7 8 7 4 1 2 3 4 6 6 6 6 6 7 8 7 8 9 13 10 5 6 7 7 7 5 8 12 12 13 9 6 8 7 3 2 3 8 12 11 10 9 7 8 8 5 4 4 1 3 8 6 5 7 6 7 9 6 3 7
14 12 11 11 12 12 12 13 12 10 7 5 3 2 3 2 3 4 5 5 4 4 4 4 4 6 6 5 5 6 4 2 4 4 5 8 10 10 9 9 9 10 9 8 10 14 12 8 9 9 8 7 4 8 11 9 8 9 8 7 7 3 3 4 1 5 6 5 3 1 5 9 7 7 6 4 2 2 4 7 7 6 8 6 3 9 13
14 13 12 12 13 13 14 14 14 13 8 3 2 3 3 2 2 4 4 3 4 4 4 4 4 5 6 3 1 2 2 3 3 4 6 5 7 8 10 11 10 9 9 9 9 12 12 9 10 9 8 8 7 10 11 7 9 12 8 5 5 4 4 6 8 7 6 6 6 4 5 8 9 9 7 5 3 1 3 5 2 4 8 5 6 15 17
13 13 13 13 13 14 14 15 15 14 7 0 2 3 2 1 1 2 1 1 3 3 3 4 3 2 3 0 3 1 3 4 4 6 7 4 3 4 7 10 13 13 10 9 9 11 9 7 9 10 9 10 11 11 9 7 10 11 7 4 4 4 5 4 7 10 10 8 8 8 10 12 11 10 9 7 5 3 4 3 3 0 3 5 10 15 15
14 14 14 14 14 14 15 15 16 14 5 2 3 3 1 0 2 2 1 2 1 1 1 2 1 2 2 1 2 4 6 8 8 7 5 4 3 5 6 9 14 14 11 10 10 11 11 8 8 10 11 11 10 9 8 7 9 11 8 5 2 3 5 6 9 12 11 9 9 10 13 14 14 13 12 10 11 10 10 9 8 8 9 11 16 17 14
14 14 14 15 15 15 15 15 17 14 6 2 3 2 2 1 0 1 1 2 1 1 1 2 3 3 1 2 4 7 9 9 7 4 5 6 5 7 9 9 9 11 13 12 6 4 10 12 11 10 10 10 8 6 7 8 9 9 7 5 1 2 6 9 8 9 9 8 9 10 13 15 16 15 12 11 13 12 12 11 11 12 13 14 18 18 12
14 14 14 14 14 15 15 15 17 15 7 1 2 3 5 4 3 2 2 2 2 1 3 4 2 1 3 4 4 5 8 8 4 1 3 6 4 5 8 7 5 9 9 8 5 6 9 12 10 8 7 6 3 2 5 8 10 8 6 4 3 4 7 9 6 5 6 7 9 12 14 16 16 14 12 10 9 8 8 6 4 6 13 16 14 11 9
14 14 14 14 14 15 14 14 16 15 10 5 2 3 6 5 2 2 3 1 2 1 3 4 2 2 4 6 6 7 9 9 5 1 4 1 2 3 8 10 2 11 12 10 8 9 14 14 10 7 9 9 6 4 6 7 7 8 6 4 3 6 8 8 6 5 5 6 8 8 8 10 9 8 8 7 8 10 9 8 7 9 12 11 7 8 10
15 15 15 15 14 14 14 14 14 14 12 8 5 4 6 5 3 3 3 2 2 2 2 4 3 1 1 4 7 9 10 5 0 4 5 4 4 5 6 6 6 11 7 5 5 10 17 15 8 8 13 14 11 9 11 11 8 5 5 4 4 8 9 6 4 4 6 8 5 3 6 6 3 3 2 2 7 11 12 12 11 9 7 7 9 13 15
15 15 15 15 14 14 14 13 12 12 10 8 6 4 4 5 5 3 3 2 2 2 1 3 3 3 5 6 7 8 7 6 7 6 7 7 8 7 3 1 9 8 3 3 3 6 15 14 9 12 16 16 15 15 15 13 11 6 2 6 8 9 8 5 3 5 7 7 6 6 6 3 2 2 2 4 9 14 16 14 11 8 10 14 17 17 15
15 15 14 14 14 13 13 12 12 11 8 7 6 4 4 5 4 2 3 3 0 1 1 4 5 5 6 5 5 4 2 7 9 9 10 9 11 10 5 5 10 7 5 3 4 3 10 10 6 10 14 12 12 16 16 15 13 9 4 5 9 9 7 5 5 5 7 6 5 5 4 3 3 5 6 8 11 14 13 12 10 8 11 15 17 16 15
16 15 15 14 14 13 12 12 12 11 8 7 6 6 5 4 3 1 2 2 1 0 4 4 3 2 2 4 5 3 5 7 9 10 9 9 11 12 9 8 8 7 6 3 1 3 7 6 4 7 9 8 7 8 10 12 12 10 7 4 4 7 7 6 5 3 4 5 4 4 4 4 3 4 5 6 6 4 5 7 6 5 8 12 16 17 16
16 15 15 14 13 13 13 13 12 12 10 7 6 7 6 4 3 2 2 2 1 2 3 2 3 2 1 1 3 2 6 7 7 8 7 8 9 8 7 5 5 6 6 5 4 4 6 7 8 9 8 7 6 4 4 6 7 7 6 4 3 3 3 5 5 1 3 6 6 5 6 4 4 6 8 5 1 1 4 8 5 4 7 11 15 17 17
16 15 14 14 13 13 14 14 14 13 11 8 7 7 6 4 5 4 3 3 2 0 2 4 5 4 1 2 3 4 5 4 4 5 7 8 7 6 6 5 4 6 6 5 3 3 4 5 6 7 4 3 5 6 4 4 4 5 5 5 6 6 3 3 5 4 5 6 6 5 4 2 4 9 10 7 4 4 6 6 4 5 9 10 13 16 17
16 16 15 14 14 13 14 15 14 13 11 9 7 7 5 3 5 5 3 3 2 2 5 5 5 4 1 3 4 4 4 3 2 3 4 5 5 5 4 3 4 3 3 2 2 3 3 4 4 5 4 3 1 5 5 4 5 5 5 6 7 6 4 2 5 6 6 5 4 4 3 2 5 10 11 7 4 4 5 5 5 9 12 11 13 14 15
16 16 15 14 13 13 15 16 15 13 11 9 7 5 5 4 6 6 4 4 2 3 6 6 5 3 3 3 3 3 2 2 2 3 3 3 4 5 5 2 2 1 2 1 2 3 4 4 2 4 5 2 1 2 4 4 5 4 3 4 5 5 3 1 4 6 5 4 4 4 3 3 7 10 9 7 5 4 4 2 6 13 15 13 12 13 12
17 16 15 14 14 15 17 18 16 13 11 9 4 3 3 3 7 8 4 4 2 3 6 7 7 7 4 3 2 2 1 2 2 2 2 3 3 3 3 1 0 1 1 1 2 2 2 3 2 1 4 4 0 2 4 4 3 2 2 3 4 4 3 2 3 4 4 4 5 5 4 4 6 8 7 5 4 3 2 5 11 16 16 13 12 12 12
17 17 16 16 16 17 19 20 18 15 12 8 1 2 1 2 6 8 5 4 2 3 6 7 8 9 8 6 5 4 2 1 2 3 3 4 3 3 2 3 1 0 1 1 1 1 1 3 3 1 3 4 2 1 4 4 3 2 1 1 2 1 1 4 4 2 3 5 5 4 3 5 8 9 7 2 1 3 7 10 13 16 15 14 13 11 10
18 19 18 17 18 19 20 21 21 18 15 8 1 2 1 1 4 7 5 5 3 2 5 6 7 10 11 10 9 9 7 6 5 5 3 4 2 3 1 3 2 1 1 1 1 1 1 2 3 1 2 3 1 2 6 6 5 2 3 2 2 3 2 3 3 1 2 4 4 1 3 8 9 6 4 4 4 7 11 12 13 13 13 13 11 10 11
20 20 19 18 19 19 20 21 22 21 17 10 3 1 1 0 2 4 4 4 4 1 2 3 2 4 7 9 10 10 8 7 7 6 4 1 1 2 2 2 2 2 2 1 1 2 1 2 3 3 3 3 2 3 5 4 5 4 1 1 2 3 3 3 4 4 3 4 4 3 5 8 7 4 6 9 9 10 12 13 13 12 12 11 11 12 13
20 20 20 19 18 19 19 20 21 20 17 12 6 1 0 1 2 3 3 4 4 1 2 1 1 1 4 8 10 10 8 8 7 6 5 3 0 0 1 1 2 2 1 2 1 1 3 3 2 2 3 3 3 5 4 2 4 6 3 2 4 5 3 3 5 8 7 8 8 7 7 9 9 8 8 10 10 11 12 13 13 12 11 11 11 13 15
20 20 20 19 18 18 18 19 19 18 16 12 8 3 1 1 2 3 2 3 3 2 5 6 5 5 6 8 10 10 10 11 10 6 5 4 3 1 1 2 1 0 1 2 3 1 3 3 1 2 3 2 1 4 4 4 5 6 4 4 5 3 1 2 6 8 5 5 6 7 9 10 10 10 10 10 10 11 11 11 12 12 13 13 13 15 17
20 20 19 19 18 17 17 17 17 16 13 10 9 7 3 2 1 2 3 3 1 1 4 7 7 8 8 8 10 11 11 12 10 6 2 2 4 3 3 4 2 2 3 2 1 1 3 3 1 3 5 1 2 1 3 3 4 5 3 3 4 3 4 5 7 6 4 6 8 9 10 10 9 9 9 10 10 11 11 11 13 13 14 16 17 18 16
20 20 19 18 17 16 16 16 16 15 11 6 7 8 4 3 3 1 4 4 1 2 4 5 7 10 11 11 11 11 11 10 9 9 9 7 5 5 7 7 5 4 4 3 1 2 4 3 3 4 5 1 1 1 4 4 4 5 3 3 3 4 5 6 7 8 8 8 10 11 11 10 8 8 9 9 11 13 13 14 15 16 16 18 19 19 18
20 19 18 17 16 15 16 15 15 16 12 4 3 6 6 6 9 7 4 4 1 2 4 5 4 8 14 15 13 11 11 11 10 12 13 12 10 9 8 7 6 5 4 3 3 3 4 5 4 4 5 4 3 3 5 5 6 6 5 4 3 5 7 7 8 9 7 7 11 12 9 8 8 9 11 12 13 15 16 17 17 17 18 18 18 19 20
19 18 17 16 15 14 15 15 14 15 13 5 2 1 3 6 11 15 12 5 2 1 5 5 3 4 7 11 13 13 13 13 12 14 15 14 12 11 9 6 5 4 3 4 4 3 5 5 4 4 4 4 4 4 5 6 6 5 6 5 2 4 7 7 5 5 7 11 14 10 7 9 11 12 13 14 14 16 17 18 18 18 19 20 19 18 18
18 18 16 15 14 13 14 14 13 13 13 6 2 3 2 3 10 18 15 7 2 1 4 6 4 3 3 6 9 12 14 15 16 16 16 15 14 12 9 7 6 5 5 5 5 6 6 5 4 4 3 2 1 4 5 5 5 5 6 5 2 3 6 4 3 4 10 14 12 8 9 14 15 14 15 15 16 17 17 18 18 19 21 22 20 19 18
18 17 15 13 12 11 12 14 13 12 11 5 2 4 2 2 7 15 14 6 2 2 2 5 5 4 2 3 6 9 11 13 16 17 16 14 12 10 9 8 7 5 5 6 6 5 6 4 4 4 3 4 1 4 5 5 6 6 5 5 4 5 6 3 2 6 13 13 11 11 15 17 15 15 15 16 18 19 18 18 20 21 21 22 21 19 19
17 16 13 11 10 10 11 12 11 12 11 5 2 2 0 2 5 13 12 4 2 0 3 6 4 3 3 2 4 7 8 8 9 11 12 11 10 11 11 9 7 6 7 7 6 5 5 4 4 4 3 4 3 2 4 5 6 6 5 5 6 7 7 5 5 10 14 14 14 16 17 16 15 15 14 16 20 21 19 19 22 22 21 22 21 20 20
16 15 12 9 8 8 9 10 9 9 11 8 4 4 4 3 6 10 7 5 3 1 3 5 3 3 3 3 2 5 6 3 3 6 7 7 8 9 10 8 7 7 6 5 5 5 4 4 4 5 3 3 3 2 4 5 6 7 7 7 8 8 7 8 11 13 14 15 17 18 17 15 15 15 16 18 21 22 21 22 23 22 22 22 21 20 19
15 13 10 8 7 6 7 8 7 6 7 7 6 7 7 7 7 6 3 4 3 1 1 2 3 3 2 1 2 5 6 2 2 5 6 6 4 3 5 6 5 6 6 5 4 3 2 3 5 6 4 2 2 4 6 6 7 8 8 8 8 8 10 12 14 14 14 14 14 15 16 17 17 18 20 21 21 22 23 23 22 22 21 20 18 17 17
14 12 9 6 5 5 6 7 7 6 5 3 2 5 8 8 7 4 2 2 2 2 2 1 2 4 2 2 2 4 6 3 2 4 5 5 4 2 4 5 4 5 5 4 4 4 3 3 4 4 4 3 3 5 6 7 8 9 9 9 10 11 13 14 14 14 14 13 12 14 18 21 21 20 20 19 19 21 23 23 22 21 18 15 15 16 16
12 10 7 6 5 4 5 6 6 5 4 2 1 4 6 5 5 7 7 3 1 2 2 1 1 3 3 3 3 3 5 3 3 4 3 3 3 3 3 4 5 5 3 2 2 5 4 2 2 2 3 3 3 4 6 9 11 10 10 12 13 13 15 15 14 14 14 14 14 16 19 21 20 18 17 17 18 21 21 21 21 19 15 13 14 15 14
10 8 6 4 4 3 3 4 4 3 2 2 4 6 4 1 2 6 9 7 4 2 2 1 1 1 1 3 4 2 2 1 3 2 1 2 3 3 3 4 5 3 2 2 4 6 4 3 2 2 4 3 4 6 7 10 12 12 12 13 12 12 14 15 16 16 16 17 18 18 18 19 18 16 16 17 17 19 19 18 17 17 14 13 13 13 12
6 6 4 3 2 3 3 2 2 3 4 6 7 6 3 1 1 1 3 4 5 5 1 2 2 2 1 2 3 1 1 0 2 1 2 2 2 2 3 3 4 1 1 4 6 5 3 3 2 5 6 5 6 8 8 9 10 11 12 12 11 11 13 15 17 19 20 20 20 18 17 18 17 16 16 16 16 16 16 15 15 14 14 13 12 11 11
3 2 1 3 3 4 3 1 2 5 6 7 6 3 1 1 1 2 2 1 2 2 2 0 2 2 0 1 2 1 1 0 1 1 2 1 1 1 2 2 1 0 2 5 4 1 2 4 5 6 6 6 7 8 8 8 9 9 9 10 11 11 13 15 17 19 19 18 18 17 17 18 18 16 15 16 15 15 15 14 14 14 14 13 12 11 11
1 1 2 3 3 2 1 2 5 6 5 4 3 1 0 1 1 2 1 1 0 1 0 0 2 1 1 2 3 2 2 1 1 2 2 1 1 1 1 2 1 0 2 4 2 1 1 4 5 5 6 6 6 7 7 8 9 9 9 11 12 13 14 15 16 17 16 15 16 18 17 17 18 16 14 14 13 14 14 14 13 13 13 13 12 11 10
5 2 1 1 0 3 5 5 5 4 3 2 1 1 1 0 0 1 1 1 2 1 1 0 2 1 2 1 3 3 1 2 1 2 3 2 1 1 1 2 1 0 2 4 2 1 1 3 4 4 5 6 6 7 7 9 10 9 10 12 14 17 18 17 17 18 17 17 18 20 19 19 19 17 15 13 12 11 12 13 12 12 12 11 9 9 9
7 5 3 2 5 8 8 5 3 2 1 2 1 0 0 1 1 0 1 2 3 2 1 1 3 3 1 2 1 3 2 2 2 1 3 3 1 1 1 3 0 0 3 4 1 0 2 3 4 4 5 7 8 9 9 10 10 10 12 14 16 18 19 19 17 18 19 18 18 19 19 20 19 17 16 16 14 12 12 13 12 12 11 10 8 7 7
9 7 5 6 8 8 5 2 0 0 1 1 1 0 0 1 1 2 2 1 1 2 2 1 1 3 2 1 1 2 2 0 2 1 1 2 1 1 2 2 1 0 3 3 1 1 2 3 4 5 7 9 11 11 10 11 11 11 13 15 16 17 18 18 17 19 20 18 17 17 19 19 18 17 17 16 15 13 13 13 12 11 10 8 8 8 8
7 5 4 5 5 3 1 1 0 1 0 1 2 1 1 1 2 2 1 1 1 1 2 2 1 2 2 0 1 2 2 0 1 0 2 2 0 0 1 1 1 1 3 1 2 2 3 3 4 6 8 10 12 12 11 12 13 13 14 15 17 18 18 18 18 19 20 19 17 16 17 17 16 16 15 15 14 13 12 11 10 10 9 8 9 10 10
3 2 2 2 1 1 1 1 1 0 1 2 2 3 3 3 3 2 2 2 3 3 3 3 4 4 3 1 0 2 2 1 1 1 2 1 1 0 1 2 2 2 1 2 2 2 2 1 3 7 10 11 11 12 13 13 13 13 13 15 17 18 19 18 18 18 18 18 17 16 15 15 14 13 12 12 12 12 11 10 9 10 10 10 10 10 10
3 2 2 2 0 1 1 1 1 1 2 3 3 4 4 4 4 4 2 2 2 4 5 5 5 5 4 2 1 1 1 1 1 1 1 1 1 2 2 2 2 1 2 2 1 1 2 2 5 8 12 13 13 13 13 13 13 14 14 14 15 16 17 17 17 17 16 16 17 16 15 14 13 12 12 11 11 11 11 12 11 11 10 10 10 10 10
2 1 1 1 1 1 1 1 2 2 3 3 3 4 4 3 3 2 2 1 2 4 5 5 5 5 4 2 1 1 1 1 2 1 0 1 2 2 2 1 2 1 1 2 2 3 3 4 6 9 13 15 15 14 14 13 13 14 14 13 13 14 16 17 18 17 17 16 16 16 15 14 14 13 12 12 11 11 12 12 12 11 11 10 10 11 11
1 0 1 2 1 1 2 2 2 1 1 1 3 3 1 1 1 1 1 1 1 3 4 4 2 3 3 2 1 2 2 1 2 1 1 0 3 3 0 2 2 2 2 2 3 3 2 4 7 10 13 15 15 15 14 14 14 15 15 14 13 15 17 18 18 18 18 18 17 16 15 15 14 13 13 12 12 12 12 12 12 11 10 10 10 10 11
1 0 2 2 1 3 3 3 2 1 1 1 1 1 1 1 1 2 2 1 1 3 5 5 4 3 3 1 1 2 3 2 2 1 0 1 2 2 2 2 2 2 3 3 2 1 3 5 7 11 13 15 15 15 14 14 15 16 16 15 15 16 18 18 18 18 18 17 16 16 15 14 14 14 13 13 14 13 13 13 13 11 10 9 9 10 10
2 1 1 1 1 2 2 1 2 3 2 2 1 1 2 3 3 2 3 2 3 3 4 3 4 4 3 2 2 3 3 2 2 2 2 2 2 2 2 2 3 3 3 3 2 1 3 4 8 12 14 15 15 14 14 13 14 15 16 16 17 18 19 19 18 17 16 16 16 15 14 14 13 14 14 14 15 15 14 14 13 12 10 9 9 10 10
2 2 2 2 2 2 2 2 4 4 3 3 3 3 4 4 3 2 3 3 4 4 3 2 2 2 2 2 3 3 3 2 2 3 4 4 3 2 2 3 3 3 2 2 2 1 3 4 7 11 14 15 15 15 14 13 13 14 16 18 18 18 19 19 19 17 16 16 16 15 14 13 13 14 15 16 16 15 15 15 14 13 11 10 9 10 10
2 2 3 3 3 2 2 2 4 4 4 3 3 3 3 4 4 3 3 3 4 5 5 5 4 3 3 3 3 3 2 2 2 3 4 3 2 3 4 4 4 2 2 2 2 2 3 4 6 10 13 14 14 15 15 15 15 16 18 18 18 17 17 18 18 17 16 16 16 15 14 14 15 16 17 17 16 16 16 15 14 13 11 10 10 9 9
3 3 2 3 3 3 2 2 3 3 2 2 1 1 1 2 1 2 4 5 6 6 6 5 4 4 4 3 2 2 2 2 2 3 3 3 3 3 5 4 2 1 1 2 2 2 3 3 6 9 12 14 15 15 16 17 17 17 18 17 16 16 16 16 16 15 15 15 15 15 15 14 15 16 16 17 17 17 16 15 15 14 12 11 10 9 9
Wind_Direction
4 8 6 3 1 355 348 348 352 349 344 342 336 310 263 203 100 82 132 156 171 212 214 190 202 217 214 221 225 219 226 242 240 197 238 265 241 243 256 266 270 260 271 275 203 184 181 184 188 186 177 171 144 159 174 185 180 181 193 181 158 196 206 184 171 165 137 103 101 133 155 197 206 204 200 195 194 203 213 201 180 189 199 193 204 202 140
6 8 6 1 358 354 348 348 352 349 345 341 328 310 282 176 93 100 145 166 217 261 204 187 201 206 211 224 221 217 231 245 244 228 238 254 248 263 266 251 266 273 269 277 225 182 168 176 180 184 178 148 108 157 170 181 185 184 188 177 168 190 194 182 175 170 167 163 162 167 178 196 200 178 174 213 193 189 199 185 182 198 201 199 211 198 132
7 8 7 0 356 356 353 350 350 349 344 336 324 304 259 208 121 113 164 203 255 266 240 231 211 200 208 219 217 218 218 238 324 283 251 255 254 265 276 264 272 281 277 281 241 190 165 148 165 180 171 133 124 166 170 188 194 176 158 168 169 177 172 196 198 188 183 182 180 180 179 178 170 142 137 122 186 190 189 183 200 205 188 200 220 154 118
7 6 5 0 357 359 354 348 350 351 344 330 303 255 260 239 131 134 178 212 240 256 282 285 238 207 207 215 221 224 220 9 345 299 260 258 253 250 264 269 272 271 260 257 230 191 165 154 171 175 158 134 135 161 165 184 172 120 104 136 146 127 64 28 1 182 174 158 130 127 171 162 149 139 136 113 91 191 205 207 213 187 170 193 177 127 135
5 3 4 0 357 356 353 351 356 354 347 326 242 244 265 275 140 154 174 194 217 234 248 248 242 225 215 220 250 234 269 345 328 258 236 250 256 249 253 252 255 255 231 213 203 181 161 158 168 164 149 134 127 145 156 152 129 118 114 136 148 134 96 49 48 74 82 78 77 79 123 131 127 124 119 110 100 142 206 204 202 162 176 184 122 128 141
4 1 3 1 358 357 354 357 1 356 352 251 227 251 249 254 136 151 192 223 203 210 221 218 230 237 213 312 11 326 255 259 246 230 227 233 241 241 246 238 239 244 226 192 181 174 162 163 169 160 146 137 132 141 146 135 140 145 135 141 161 123 101 93 89 88 78 72 81 91 99 97 93 95 95 94 99 105 115 95 27 322 182 148 129 130 133
5 3 3 1 359 358 356 359 2 0 5 175 240 278 281 238 151 149 285 302 259 241 215 181 139 75 80 52 280 247 245 246 245 237 231 240 231 226 247 240 230 231 213 180 176 174 164 168 176 159 144 145 148 146 140 139 161 162 135 119 140 86 102 127 114 94 81 77 86 94 101 98 84 76 76 81 85 86 88 84 72 77 87 104 120 118 113
7 5 3 359 357 359 359 359 1 4 12 218 250 321 15 346 2 88 247 246 238 219 151 107 80 79 117 230 236 239 248 254 259 244 216 225 216 207 234 241 211 196 184 171 170 163 155 161 164 150 140 146 156 155 147 147 157 155 134 125 129 80 135 148 125 92 83 87 95 97 99 95 84 72 68 76 82 79 83 87 81 83 94 108 115 111 104
7 4 2 359 358 358 0 0 2 9 17 322 285 15 11 327 298 312 279 220 158 136 116 101 87 166 210 233 237 235 245 253 275 50 173 218 218 194 237 252 163 136 131 118 71 52 99 117 117 118 118 114 113 133 143 151 154 144 123 129 143 122 143 169 164 106 95 109 114 109 103 97 85 67 57 66 78 77 81 85 72 102 124 127 124 122 122
6 4 2 3 1 360 1 2 4 13 23 19 359 5 357 335 292 260 271 232 136 134 126 134 189 218 203 229 250 263 270 269 261 123 112 177 230 213 269 280 126 99 76 62 55 69 83 78 69 80 83 73 65 73 93 111 134 136 124 115 135 134 143 175 181 123 116 140 130 120 127 123 95 55 37 55 86 94 93 89 90 117 134 139 138 133 130
5 5 4 4 3 2 1 2 7 16 22 21 4 351 357 348 317 275 268 234 150 153 162 179 216 231 215 256 274 281 292 310 190 143 127 142 165 173 252 286 83 89 72 54 57 80 85 80 78 93 82 71 71 72 73 71 68 95 124 112 123 143 148 162 163 128 142 158 156 170 177 157 108 27 348 52 99 105 103 98 99 107 107 91 101 119 127
4 5 5 5 4 3 2 4 13 18 18 13 355 336 345 331 305 294 289 263 154 137 214 233 244 274 291 298 300 295 316 30 64 86 96 99 105 119 189 168 86 89 88 49 26 72 84 79 81 91 81 72 68 63 62 63 54 45 113 137 136 142 142 133 118 120 138 155 175 184 174 153 72 87 114 101 105 107 99 89 85 94 100 101 109 120 125
3 3 4 5 5 5 7 9 10 9 6 5 350 317 310 317 307 309 313 295 120 99 273 267 268 273 276 281 281 281 355 59 65 65 68 70 71 71 67 78 91 110 127 77 2 45 87 85 85 92 91 85 70 57 53 53 46 39 59 132 145 146 139 119 104 113 133 155 182 172 138 107 99 114 116 116 122 121 103 80 66 85 113 120 119 119 119
359 359 0 2 3 6 7 5 2 358 354 352 336 306 302 313 297 295 317 313 41 251 255 260 275 254 204 227 242 209 113 84 67 58 52 54 62 58 51 67 96 131 153 151 333 83 108 131 146 125 124 118 83 64 61 54 43 42 52 80 139 148 143 126 106 113 150 138 109 103 128 144 140 146 156 144 131 127 108 91 74 88 119 128 125 123 122
357 356 356 359 3 8 6 360 355 352 348 341 322 301 298 284 252 262 314 307 237 207 240 309 358 11 88 240 255 154 112 95 76 73 65 60 67 70 69 85 132 166 180 199 197 156 153 162 155 147 148 138 117 115 114 86 56 46 59 82 102 112 148 151 131 138 178 135 116 132 162 177 174 172 175 162 112 36 116 113 100 105 131 137 134 130 130
356 355 357 0 4 6 2 355 350 347 343 338 323 305 296 268 235 240 273 285 269 130 18 350 324 294 305 45 38 45 64 71 75 94 89 69 67 82 88 97 152 183 198 211 192 157 160 152 145 142 131 114 128 131 128 128 103 65 77 106 98 79 88 144 136 141 171 166 156 157 152 125 145 158 161 161 162 171 157 142 130 138 144 145 139 135 137
353 355 359 2 2 359 356 353 350 347 342 336 324 308 297 261 216 221 240 259 271 32 28 349 302 269 281 59 51 32 26 27 31 67 77 65 60 66 72 101 150 179 234 233 151 140 138 123 132 131 97 38 141 137 124 126 116 99 100 103 92 87 93 131 139 144 165 174 152 124 87 67 137 150 154 156 159 184 199 199 173 156 152 148 143 141 140
352 356 359 360 357 354 355 358 355 350 345 335 318 293 281 247 208 213 241 260 266 46 38 359 340 7 26 18 26 20 352 345 27 59 72 72 56 38 20 21 128 113 330 301 138 131 125 110 106 122 109 66 291 146 125 114 102 100 114 98 84 84 77 99 141 141 150 158 135 104 82 108 141 144 145 151 165 198 219 182 136 148 152 148 144 140 138
354 357 359 357 355 354 358 3 1 355 349 341 315 247 254 235 202 205 231 274 292 51 41 11 15 39 24 338 6 55 350 316 348 25 77 88 51 7 349 336 310 31 22 53 87 79 109 109 70 79 124 129 117 65 90 91 81 86 123 118 104 97 92 114 135 134 140 146 132 114 101 125 150 144 138 155 183 185 128 102 126 142 146 142 140 138 138
353 357 358 357 355 356 2 7 7 2 356 351 347 180 220 217 198 204 233 298 320 71 51 19 22 38 32 22 29 28 0 348 359 357 38 71 30 299 229 152 142 127 131 146 122 66 127 124 104 73 124 118 104 92 100 92 71 48 12 42 64 50 144 136 113 98 143 146 143 135 122 145 162 156 144 158 284 110 119 124 132 137 137 137 138 137 137
354 357 358 357 357 359 4 8 10 9 5 4 55 153 162 197 204 208 230 288 307 65 58 27 24 37 40 40 28 11 4 8 1 350 18 63 27 305 317 100 85 29 128 158 124 84 76 111 106 92 101 100 120 167 138 125 112 71 351 2 48 355 306 142 108 354 225 154 137 99 100 133 153 155 123 99 94 118 132 134 132 135 139 139 136 133 133
357 358 358 358 359 2 6 9 12 13 11 13 39 118 102 132 210 206 210 258 283 322 25 0 11 42 49 47 33 19 12 360 344 333 334 8 21 325 2 62 56 34 14 339 136 127 137 137 125 124 122 112 117 140 140 142 137 122 49 345 54 29 17 67 73 53 47 76 94 101 103 113 116 100 97 107 113 124 135 135 134 139 143 139 134 133 134
358 358 357 357 358 1 6 11 14 13 11 14 24 25 341 137 170 179 200 250 256 240 30 8 173 108 50 33 21 15 12 1 343 321 308 306 296 72 346 39 54 56 10 325 318 141 134 131 132 130 120 102 116 141 138 108 123 128 110 54 69 76 59 48 87 107 94 68 77 102 107 103 102 99 103 110 117 127 133 134 136 140 140 138 135 134 135
357 356 355 355 356 359 5 11 14 12 8 11 19 26 40 122 167 180 216 265 244 145 66 48 35 12 359 356 359 6 10 4 352 327 296 279 266 262 104 79 33 122 109 24 336 350 103 97 98 127 108 81 179 167 138 102 117 128 117 100 103 113 117 84 119 142 140 83 83 99 103 107 112 109 108 113 118 124 128 131 136 137 134 133 132 133 136
354 353 353 353 353 357 4 10 11 10 9 14 26 35 31 336 292 224 258 300 298 108 77 62 36 11 2 3 7 8 1 355 357 6 12 292 287 302 98 97 48 45 92 96 247 163 106 99 145 135 117 76 282 174 99 100 144 152 138 122 123 136 149 126 116 121 111 102 113 111 101 107 116 117 118 122 122 121 122 124 129 130 128 129 131 134 136
351 349 349 350 351 355 2 6 6 5 6 19 45 53 47 17 28 1 277 293 338 65 77 77 48 32 37 38 24 8 0 5 24 40 47 50 45 70 107 111 90 85 97 93 75 86 97 104 108 114 115 104 317 84 78 89 134 146 131 106 107 130 150 133 112 107 99 107 128 126 109 107 117 120 122 129 131 130 128 126 127 128 128 130 132 133 133
348 346 346 346 347 352 359 2 1 359 357 1 71 72 61 46 45 38 346 297 255 103 91 94 72 52 52 45 31 21 20 29 45 52 52 55 62 77 97 106 102 107 108 91 82 78 91 93 75 72 96 102 87 89 94 100 115 124 123 123 137 152 148 128 122 132 138 147 158 154 132 123 134 132 128 132 136 134 131 129 129 130 131 132 132 130 130
345 343 342 342 343 349 356 359 357 355 355 351 192 130 41 33 33 29 18 351 296 86 91 93 88 81 62 38 30 36 41 45 54 59 60 60 61 66 74 78 83 90 79 80 94 86 78 85 82 81 97 105 94 96 111 120 119 117 123 126 136 159 153 142 136 149 152 155 163 162 128 122 135 135 131 134 137 135 132 131 131 132 133 134 133 131 131
341 340 338 337 339 345 351 357 358 355 357 5 182 215 279 7 24 20 15 3 322 36 103 101 80 75 56 20 31 47 52 54 59 62 62 62 61 61 63 62 64 70 70 75 84 84 77 71 71 80 64 342 100 128 138 140 126 115 121 121 108 139 143 122 65 108 135 146 155 147 120 124 134 135 132 134 135 133 130 130 132 133 134 134 133 132 132
338 337 335 332 335 343 348 355 3 6 3 4 200 221 231 118 31 8 1 353 299 297 107 101 85 80 69 17 33 47 50 55 60 60 58 59 57 58 62 64 63 67 76 79 76 82 92 82 69 80 48 347 349 147 153 142 124 117 120 125 133 142 135 92 56 128 136 138 137 126 121 125 130 131 131 132 133 132 130 131 134 134 132 131 129 129 130
335 333 330 326 330 340 347 353 7 20 20 6 269 259 130 109 9 350 353 27 91 165 101 101 106 123 114 65 25 26 28 42 57 56 54 55 57 59 59 60 61 61 68 79 75 67 79 83 82 103 82 357 345 143 147 139 131 123 117 122 131 133 128 110 112 126 128 128 126 122 121 126 130 131 131 132 133 133 132 132 133 132 130 129 128 128 129
332 329 325 320 323 335 348 354 2 20 29 32 44 48 38 10 332 332 351 56 79 82 107 105 119 134 110 97 45 8 355 358 61 58 50 47 53 61 59 57 65 58 47 66 80 63 58 70 76 91 83 352 330 125 127 130 130 123 120 126 129 128 125 121 120 123 128 132 130 126 127 134 136 134 134 135 135 135 134 132 132 131 130 128 127 128 129
328 323 316 314 316 326 345 354 354 2 13 24 47 46 20 355 342 340 15 70 62 6 12 81 116 118 105 138 89 14 344 314 96 65 49 32 20 57 69 65 71 57 31 38 73 73 62 86 89 88 79 32 45 105 103 102 113 119 124 129 127 126 126 126 128 131 134 137 137 134 134 136 135 133 134 134 134 134 134 133 132 132 131 130 129 129 130
323 316 308 304 307 316 335 348 352 351 341 335 24 23 3 357 3 14 63 109 106 87 45 16 125 119 118 182 134 27 354 347 60 58 52 32 358 23 77 71 67 58 36 34 74 91 83 79 87 95 93 70 68 90 100 108 115 120 123 124 126 129 130 130 132 135 135 136 135 131 130 132 132 133 134 133 132 133 134 134 135 135 134 133 133 133 134
315 308 302 292 290 303 328 339 341 335 318 297 354 354 348 358 30 49 64 78 212 156 106 37 179 140 138 146 117 40 357 5 52 46 51 56 28 24 60 70 63 54 23 359 58 81 71 28 5 87 99 75 60 84 114 126 126 125 127 128 132 136 135 134 135 135 135 135 133 130 131 133 134 134 134 133 134 135 137 139 140 139 137 136 137 140 142
310 300 291 279 278 289 303 325 340 330 295 299 325 329 327 332 34 49 59 56 34 52 118 177 187 142 130 110 98 54 333 47 86 53 50 88 60 24 33 69 71 58 3 14 58 65 48 338 328 73 81 65 70 93 119 132 131 130 133 135 138 142 140 138 139 137 134 132 132 132 135 135 133 133 135 135 137 140 142 143 143 142 141 141 143 147 148
307 295 277 246 243 260 255 262 340 326 310 314 318 317 321 303 283 57 70 53 34 28 8 200 130 67 8 75 98 93 293 111 107 78 55 73 62 24 25 63 77 83 53 60 58 49 29 12 48 77 71 65 84 102 119 131 130 129 133 134 135 138 138 138 138 135 131 131 133 135 136 135 134 136 138 139 143 146 145 145 148 147 144 145 149 153 153
304 284 243 208 217 227 212 185 296 298 303 313 311 304 319 308 251 146 96 12 17 24 339 302 108 103 258 112 91 24 330 101 140 107 65 58 66 62 49 56 62 188 98 77 65 20 35 56 71 82 80 82 97 107 117 126 126 125 130 131 131 133 135 138 140 138 135 137 140 142 141 140 140 142 144 145 147 149 148 149 150 150 149 150 154 158 158
344 212 213 207 207 219 296 318 303 298 303 309 299 277 69 314 243 158 92 328 207 133 300 176 120 134 218 134 103 54 341 281 174 126 91 57 21 48 86 82 60 227 118 97 89 256 92 82 87 99 103 111 115 112 118 126 127 125 128 130 132 134 137 140 144 143 141 141 143 144 144 143 144 146 147 148 149 150 152 153 153 154 155 157 159 163 166
31 10 274 212 232 334 328 316 304 295 278 249 251 232 132 24 257 142 157 204 174 123 20 80 117 73 310 272 124 106 7 319 335 91 93 78 33 352 89 89 63 327 101 88 52 316 110 111 118 124 128 136 138 135 135 133 129 127 130 132 133 136 138 140 143 142 139 137 139 142 143 144 145 147 149 151 152 153 155 158 160 163 163 160 162 171 174
9 349 324 311 316 321 322 321 319 303 251 215 184 101 120 108 73 26 232 210 171 120 73 209 163 149 198 280 130 114 98 344 337 44 85 79 37 310 87 92 95 265 91 87 66 280 108 117 135 139 138 144 147 148 147 141 134 134 138 139 138 140 140 141 141 143 142 141 142 145 146 148 149 150 152 155 157 158 160 163 166 170 171 169 171 180 183
322 306 300 300 302 309 315 313 341 97 229 209 167 122 198 152 164 202 215 212 159 128 144 204 182 133 120 24 29 85 96 327 279 248 112 86 41 328 87 107 195 198 86 90 198 197 129 134 148 142 140 148 154 156 155 149 145 146 147 146 147 147 146 145 145 146 148 149 147 148 151 154 154 154 156 159 162 163 164 166 168 171 175 175 175 180 178
321 304 293 283 280 287 289 243 155 62 227 189 147 155 196 189 192 204 185 147 173 170 144 127 111 115 120 97 33 78 89 277 279 323 74 84 122 232 109 100 62 72 95 142 215 168 136 151 157 146 147 153 159 163 160 154 152 154 155 155 155 155 152 151 150 150 153 155 154 154 156 158 158 158 162 166 166 165 165 168 171 172 173 173 173 174 170
311 261 255 246 243 281 266 196 144 176 222 198 184 193 192 180 184 201 181 159 172 173 158 165 178 167 150 148 117 108 125 192 226 75 83 117 154 97 72 80 75 87 143 201 203 126 112 132 145 146 150 156 163 168 167 161 159 160 161 163 164 163 160 159 159 158 159 161 161 162 164 164 163 164 169 172 171 169 169 171 172 170 169 168 166 163 160
261 226 212 190 186 311 285 175 175 232 224 202 198 205 194 182 187 191 166 136 161 162 156 172 186 167 136 129 204 159 148 168 146 97 110 154 128 57 51 91 120 154 191 184 162 154 169 169 155 152 156 162 169 171 170 168 166 165 164 167 171 171 169 169 169 169 169 169 168 170 173 172 171 175 180 182 183 180 174 171 171 169 167 166 163 159 160
266 253 216 205 245 287 253 180 182 212 213 198 202 211 208 200 193 163 117 121 188 168 157 169 183 165 144 144 163 130 148 157 121 86 296 205 121 78 49 109 160 187 199 186 203 216 191 161 160 163 165 167 170 171 171 172 171 168 168 171 176 178 178 177 176 176 177 177 177 177 179 179 179 182 183 184 187 186 178 171 170 170 170 170 169 167 169
263 273 245 233 197 195 217 214 204 217 226 211 213 221 234 355 36 86 109 184 213 155 141 151 162 135 129 156 176 144 146 148 110 84 299 221 113 102 166 225 197 192 200 203 216 220 174 150 159 166 165 166 169 172 173 174 173 174 174 175 177 180 182 183 183 182 180 180 181 182 183 184 184 183 181 181 183 183 178 173 171 173 175 179 180 177 178
278 210 232 235 197 188 202 211 214 220 219 218 234 285 5 317 235 183 147 161 204 166 156 163 168 145 136 174 201 152 139 139 125 111 101 128 123 135 189 209 196 208 227 225 213 170 137 148 161 164 164 167 170 173 174 175 176 178 178 177 178 182 184 185 186 185 183 183 185 186 186 187 187 186 186 184 182 180 178 175 175 177 179 182 182 179 182
283 257 242 251 246 225 210 221 240 223 193 174 202 226 212 221 221 175 127 147 192 177 157 171 187 172 155 164 186 170 166 169 157 145 166 185 177 174 183 189 191 200 210 215 210 136 114 136 156 162 165 169 171 173 175 176 177 180 181 180 181 183 185 187 189 188 186 188 191 192 191 191 192 192 192 188 183 180 179 177 177 180 180 180 181 180 182
244 254 240 225 226 214 176 195 229 223 196 182 200 208 210 219 214 161 138 172 182 160 147 178 193 158 137 164 185 181 174 163 150 163 185 193 187 177 187 203 209 198 166 162 177 149 124 137 158 166 168 171 173 174 174 174 176 180 183 183 183 185 188 190 192 191 190 195 199 198 195 194 195 195 195 192 185 179 178 179 182 184 182 181 184 184 184
215 238 242 239 239 221 176 194 227 226 211 205 203 194 208 227 218 170 153 172 178 171 177 184 172 145 154 183 185 169 153 153 170 194 205 197 177 189 207 215 218 207 167 133 124 130 135 147 163 170 171 171 173 175 175 174 176 181 184 184 185 188 190 192 193 193 194 197 199 197 195 198 199 197 195 191 183 177 177 182 187 187 185 185 190 191 187
213 221 222 222 232 237 238 249 259 250 235 234 214 147 207 246 234 140 153 181 193 189 182 175 169 172 182 182 160 138 144 160 180 202 207 193 181 209 229 235 230 207 190 151 133 136 145 156 169 175 175 173 173 175 175 175 177 181 183 183 183 184 186 188 190 190 190 191 194 195 196 197 194 189 185 182 180 180 182 184 187 188 189 190 192 192 190